BEIDOU IGSO-7

Last updated on Sept. 17, 2019, 4:08 a.m. UTC

1 43539U 18057A   19259.48646014 -.00000137  00000-0  00000+0 0  9995
2 43539  55.0399 184.7717 0022908 200.1918 255.3123  1.00250022  4438
UTC
Height (km)
Latitude
Longitude
Inclination
Orbital Period
UTC large
Height (km)
Speed (km/s)
/
Latitude / Longitude
Inclination (degrees)
Orbital Period (minutes)
Azimuth
Elevation
Range (km)
Doppler Factor
iOS Compass Heading
iOS Angle

Next 30 passes for location: Hong Kong

Rise time Rise Azimuth (degrees) Set time Set Azimuth (degrees) Duration Max altitude (degrees)

No matching passes for this satellites